Regional Weather Roundup
Issued by NWS Charleston, WV

Home | Current Version | Previous Version | Graphics & Text | Print | Product List | Glossary On
Versions: 1 2 3 4 5 6 7 8 9 10 11 12 13 14 15 16 17 18 19 20 21 22 23 24 25 26 27
000
ASUS41 KRLX 230810
RWRRLX
West Virginia Regional Weather Roundup
National Weather Service Charleston WV
300 AM EST FRI FEB 23 2018

Note: "fair" indicates few or no clouds below 12,000 feet with no
significant weather and/or obstructions to visibility.

WVZ003-230900-
Northern Panhandle of West Virginia

CITY           SKY/WX    TMP DP  RH WIND       PRES   REMARKS
WHEELING       FOG       41  40  96 SE6       30.36F VSB 1/2
$$

WVZ009-230900-
Northwest West Virginia

CITY           SKY/WX    TMP DP  RH WIND       PRES   REMARKS
PARKERSBURG    MOCLDY    44  43  96 E3        30.37F FOG
$$

WVZ006-230900-
Western West Virginia

CITY           SKY/WX    TMP DP  RH WIND       PRES   REMARKS
HUNTINGTON     FAIR      47  45  93 E3        30.33F FOG
$$

WVZ015-230900-
West Central West Virginia

CITY           SKY/WX    TMP DP  RH WIND       PRES   REMARKS
CHARLESTON     CLOUDY    50  49  96 CALM      30.34F
$$

WVZ022-031-230900-
North Central West Virginia

CITY           SKY/WX    TMP DP  RH WIND       PRES   REMARKS
CLARKSBURG     LGT RAIN  46  44  93 CALM      30.38F FOG
MORGANTOWN     CLOUDY    45  42  89 E8        30.39F
$$

WVZ025-035-042-045-230900-
Southern West Virginia

CITY           SKY/WX    TMP DP  RH WIND       PRES   REMARKS
BECKLEY        CLOUDY    60  56  86 S9        30.40S
LOGAN          FAIR      57  55  94 CALM      30.36S
BLUEFIELD      FAIR      59  55  87 S5        30.42F
LEWISBURG      CLOUDY    56  55  94 NE3       30.43S
$$

WVZ047-230900-
Northern Mountains of West Virginia

CITY           SKY/WX    TMP DP  RH WIND       PRES   REMARKS
ELKINS         CLOUDY    50  48  93 N5        30.40S
$$

WVZ052-230900-
Eastern Panhandle of West Virginia

CITY           SKY/WX    TMP DP  RH WIND       PRES   REMARKS
MARTINSBURG    LGT RAIN  40  40 100 CALM      30.57R FOG
PETERSBURG     CLOUDY    40  39  97 N3        30.52S FOG
$$




USA.gov is the U.S. government's official web portal to all federal, state and local government web resources and services.